Regional Weather Roundup
Issued by NWS

Home | Current Version | Previous Version | Graphics & Text | Print | Product List | Glossary On
Versions: 1 2 3 4 5 6 7 8 9 10 11 12 13 14 15 16 17 18 19 20 21 22 23 24 25 26 27 28 29 30 31 32 33 34 35 36 37 38 39 40 41 42 43 44 45 46 47 48 49 50
000
ASUS43 KLOT 051608
RWRIL

ILLINOIS REGIONAL WEATHER ROUNDUP
NATIONAL WEATHER SERVICE CHICAGO/ROMEOVILLE IL
1100 AM CDT THU MAY 05 2016

NOTE: "FAIR" INDICATES FEW OR NO CLOUDS BELOW 12,000 FEET WITH NO
SIGNIFICANT WEATHER AND/OR OBSTRUCTIONS TO VISIBILITY.

* THESE STATIONS ARE NOT UNDER NWS QUALITY CONTROL. THEY ALSO MAY NOT
  REPORT WEATHER SUCH AS PRECIPITATION OR FOG.

ILZ001-002-007-009-015-016-024-051700-
NORTHWEST ILLINOIS

CITY           SKY/WX    TMP DP  RH WIND       PRES   REMARKS
MOLINE         SUNNY     55  37  50 NE8       30.07R
STERLING*      SUNNY     55  43  62 N9        30.06S
SAVANNA*       SUNNY     55  38  53 N7        30.07S
$$

ILZ003-004-008-010-011-017-018-051700-
NORTH CENTRAL ILLINOIS

CITY           SKY/WX    TMP DP  RH WIND       PRES   REMARKS
ROCKFORD       SUNNY     56  39  53 N10       30.06S
FREEPORT*      SUNNY     53  40  61 N8        30.07S
ROCHELLE*      SUNNY     54  42  63 N16       30.04S
DE KALB*       SUNNY     54  44  69 N12       30.03S
$$

ILZ005-006-012>014-019>023-051700-
NORTHEAST ILLINOIS

CITY           SKY/WX    TMP DP  RH WIND       PRES   REMARKS
CHICAGO-OHARE  SUNNY     54  40  59 NE15      30.01R
CHICAGO-MIDWAY SUNNY     54  40  59 N13       30.01R
AURORA         SUNNY     56  43  61 N13       30.02R
LANSING*       MOSUNNY   47  40  75 N16       30.01R
JOLIET*        SUNNY     56  43  60 N8G16     30.01R
WAUKEGAN       SUNNY     53  41  63 N9        30.02R
DUPAGE AIRPORT SUNNY     55  40  56 N13       30.01R
KANKAKEE*      SUNNY     55  42  62 N12G18    29.99S
WHEELING       SUNNY     54  41  61 N10G17    30.03R
MORRIS*        SUNNY     55  43  62 N5        30.00S
ROMEOVILLE*    SUNNY     55  41  60 N16       30.01R
NORTHERLY ISL    N/A     46  39  76 N17         N/A
NORTHERLY ISL    N/A     46  39  76 N17         N/A
$$

LMZ740>746-051700-
SOUTHERN LAKE MICHIGAN

STATION/POSITION SKY/WX   TEMP    WIND        PRES    VSBY  WAVE
                          AIR SEA DIR/SP/G                  HT/PER
                          (F)     (DEG/KT/KT) (MB)    (MI)  (FT/S)
SOUTHERN BUOY              40 40   10/ 16/ 17 1015.9R         4/ 6
WILMETTE HARBOR            42 43   10/ 16/ 21   N/A           6/ 7
HARRISON CRIB              43     350/ 22/ 24   N/A
BURNHAM HARBOR             46     360/ 13/ 19   N/A
CALUMET HARBOR             44     340/ 17/ 21 1015.7R
BURNS HARBOR               42     360/ 15/ 19 1016.6R
MICHIGAN CITY              42     350/ 15/ 18   N/A
ST. JOSEPH                 43 46                N/A           4/ 7
$$

ILZ025>027-034>036-040-047-049-050-058-095>099-051700-
WEST-CENTRAL ILLINOIS

CITY           SKY/WX    TMP DP  RH WIND       PRES   REMARKS
QUINCY         SUNNY     56  40  55 NE12G22   30.07R
GALESBURG*     SUNNY     55  39  56 N9G17     30.06S
MACOMB*        SUNNY     55  39  53 N13       30.08F
JACKSONVILLE*  SUNNY     56  39  52 NW13      30.05R
PITTSFIELD*    SUNNY     56  40  56 N9G16     30.07R
$$

ILZ028>032-037-038-041>044-048-051>054-059>061-051700-
CENTRAL ILLINOIS

CITY           SKY/WX    TMP DP  RH WIND       PRES   REMARKS
PONTIAC        SUNNY     56  46  67 N12       30.01S
BLOOMINGTON    MOSUNNY   54  46  74 N15       30.02R
DECATUR        SUNNY     54  44  69 N15       30.00S
PEORIA         SUNNY     54  41  61 N13G20    30.04S
LACON*         SUNNY     53  41  64 N9        30.03S
LINCOLN*       SUNNY     55  44  67 N9        30.02S
SPRINGFIELD    SUNNY     56  42  59 N14       30.04R
TAYLORVILLE    MOSUNNY   52  43  71 N15       30.02S
$$

ILZ033-039-045-046-055>057-062-063-051700-
EAST-CENTRAL ILLINOIS

CITY           SKY/WX    TMP DP  RH WIND       PRES   REMARKS
CHAMPAIGN      SUNNY     56  44  64 N15       29.98R
RANTOUL*       SUNNY     57  45  65 N15       29.98R
MATTOON        PTSUNNY   52  43  71 N13       29.98R
PARIS*         CLOUDY    49  44  80 N3        29.98R
$$

ILZ079-100>102-051700-
SOUTHWEST ILLINOIS

CITY           SKY/WX    TMP DP  RH WIND       PRES   REMARKS
ALTON          PTSUNNY   54  39  58 N14       30.03R
BELLEVILLE     SUNNY     57  42  58 N9        30.01R
CAHOKIA*       SUNNY     58  38  47 N17G24    30.03R
SPARTA*        SUNNY     54  41  62 N15G22    30.02R
$$

ILZ064>066-069>071-074>076-080>082-084>086-088>090-092>094-051700-
SOUTH-CENTRAL ILLINOIS

CITY           SKY/WX    TMP DP  RH WIND       PRES   REMARKS
CARBONDALE     MOSUNNY   54  41  61 N16G23    29.99R
CAIRO*         SUNNY     60  38  44 N20       29.96R
EFFINGHAM*     MOSUNNY   52  44  75 NW12      30.01R
MARION         PTSUNNY   55  43  62 N12G17    29.99R
MT. VERNON     PTSUNNY   52  39  62 N6        30.00R
CENTRALIA*     CLOUDY    54  45  71 N12G17    30.00R
SALEM*         CLOUDY    53  42  66 N10       30.00R
METROPOLIS*    MOSUNNY   57  45  63 N14       29.96R
$$

ILZ067-068-072-073-078-083-087-091-051700-
SOUTHEAST ILLINOIS

CITY           SKY/WX    TMP DP  RH WIND       PRES   REMARKS
LAWRENCEVILLE  PTSUNNY   55  43  63 N16       29.95R
FLORA*         CLOUDY    54  44  67 N10G17    29.99R
FAIRFIELD*     CLOUDY    52  43  70 N10       29.97R
HARRISBURG*    CLOUDY    51  42  72 N12G18    29.99R
ROBINSON*      PTSUNNY   51  44  75 NW15      29.96R
CARMI*         CLOUDY    48  41  76 N14G20    29.97R
$$

ABBREVIATIONS USED IN REMARKS
   TC - TEMPERATURE IN CELSIUS
  WCI - WIND CHILL INDEX
   HX - HEAT INDEX
  VSB - VISIBILITY
$$




USA.gov is the U.S. government's official web portal to all federal, state and local government web resources and services.